Starlink 3770

operational
NORAD ID: 52554 Int'l Des: 2022-051 Owner: SPXS Country: US Constellation: starlink
LEOCIRCULAR

Über Starlink 3770

Beschreibung wird geladen...

Live-Position

3D-Globus wird geladen...

Nächste Überflüge

Höhenverlauf

Altitude vs Time

uPlot chart will show altitude changes over time

Zweizeiliger Elementsatz

1 52554U 22051X 26062.54747402 -.00002844 00000-0 -16077-3 0 9994
2 52554 53.2173 161.6935 0000972 84.7152 275.3951 15.08819768210446
Epoch: 3. März 2026 • Age: 28 hours

Aktueller Status

Höhe 541.5 km
Geschwindigkeit 7.60 km/s
Subsatellitenpunkt 32.94°N, 28.67°W
Startdatum 13. Mai 2022
Alter 3.8 years
Typ internet

Technische Details

Klassifizierung Payload
Masse 297.00 kg
Trockenmasse 275.00 kg
Gesamtmasse 297.00 kg
Länge 0.20 m
Durchmesser 2.80 m
Spannweite 9.00 m
Form Box + pan
Hersteller SPXS
Bus-Typ Starlink
Phasenstatus In Orbit
Besitzer/Staat SPXS/US

Große Konstellationen

Loading constellations...